Find Skipper

NORAD ID: 23752 Int'l Des: 1995-072 Owner: BMDO Country: US operational
LEOCIRCULARRETROGRADESSO

Live Position

Loading 3D Globe...

About Skipper

Description loading...

Upcoming Passes

Passes for default location (London). Set your location on the main map for personalized predictions.

Altitude History

Loading altitude history...

Two-Line Element Set

1 23752U 95072B 26110.47635444 .00000004 00000-0 20163-4 0 9999
2 23752 98.7376 182.3160 0004431 298.2141 61.8591 14.26150801577110
Epoch: Apr 20, 2026 • Age: 15 hours

Current Status

Altitude 818.7 km
Velocity 7.44 km/s
Sub-Earth Point -44.52°S, 53.24°W
Launch Date Dec 28, 1995
Age 30.3 years
Type other

Technical Details

Classification Payload
Mass 250.00 kg
Dry Mass 220.00 kg
Total Mass 250.00 kg
Length 1.00 m
Diameter 1.50 m
Span 1.50 m
Shape Cyl
Manufacturer NPOL/CNSA
Bus Type Skipper
Phase Status In Orbit
Owner/State BMDO/US

Most Searched